GW5356 Weather Reports


Display with metric or nautical units.
time (UTC)temp
F
wind
direction
speed
MPH
gust
MPH
rain 1hr
in
rain 24hr
in
rain mn
in
humidity
%
barometer
mb
20260505101607 51 0 0.0 1.0 0.00 0.00 0.00 74 1015.4
20260505100105 51 0 0.0 0.0 0.00 0.00 0.00 72 1015.4
20260505094556 52 0 0.0 1.0 0.00 0.00 0.00 71 1015.5
20260505093102 53 0 0.0 0.0 0.00 0.00 0.00 70 1015.3
20260505091555 53 0 0.0 1.0 0.00 0.00 0.00 69 1015.1
20260505090101 53 0 0.0 0.0 0.00 0.00 0.00 69 1015.0
20260505084605 53 0 0.0 1.0 0.00 0.00 0.00 67 1014.9
20260505083105 54 0 0.0 0.0 0.00 0.00 0.00 65 1014.6
20260505081624 55 33 0.0 1.0 0.00 0.00 0.00 64 1014.5
20260505080103 56 0 0.0 1.0 0.00 0.00 0.00 63 1014.4
20260505074559 56 0 0.0 2.0 0.00 0.00 0.00 62 1014.1
20260505073104 56 231 0.0 2.0 0.00 0.00 0.00 62 1014.1
20260505071557 56 288 0.0 1.0 0.00 0.00 0.00 62 1014.1
20260505070100 57 353 0.0 1.0 0.00 0.00 0.00 60 1014.1
20260505064553 57 0 0.0 1.0 0.00 0.00 0.00 59 1014.1
20260505063106 58 0 0.0 1.0 0.00 0.00 0.00 58 1014.1
20260505061557 58 0 0.0 1.0 0.00 0.00 0.00 56 1014.2
20260505060058 59 0 0.0 2.0 0.00 0.00 0.00 56 1014.2
20260505054554 59 0 0.0 2.0 0.00 0.00 0.00 55 1014.2
20260505053056 59 0 0.0 1.0 0.00 0.00 0.00 54 1014.3
20260505051556 60 342 0.0 1.0 0.00 0.00 0.00 54 1014.2
20260505050106 60 343 0.0 1.0 0.00 0.00 0.00 52 1014.2
20260505041554 59 0 0.0 1.0 0.00 0.00 0.00 54 1014.1
20260505040057 59 0 0.0 0.0 0.00 0.00 0.00 54 1014.3
20260505034553 60 0 0.0 0.0 0.00 0.00 0.00 53 1014.4
20260505033053 60 0 0.0 0.0 0.00 0.00 0.00 51 1014.5
20260505031554 61 0 0.0 0.0 0.00 0.00 0.00 49 1014.6
20260505030055 63 0 0.0 1.0 0.00 0.00 0.00 47 1014.7
20260505024554 62 0 0.0 0.0 0.00 0.00 0.00 49 1014.7
20260505023056 62 0 0.0 0.0 0.00 0.00 0.00 49 1014.6
20260505021554 63 0 0.0 0.0 0.00 0.00 0.00 47 1014.6
20260505020055 64 0 0.0 0.0 0.00 0.00 0.00 45 1014.5
20260505014558 65 0 0.0 0.0 0.00 0.00 0.00 44 1014.5
20260505013057 66 0.0 1.0 0.00 0.00 0.00 42 1014.1
20260505011554 67 0 0.0 1.0 0.00 0.00 0.00 40 1014.1
20260505010115 68 43 0.0 0.0 0.00 0.00 0.00 1013.9
20260505004552 0 0.0 0.0 0.00 0.00 0.00 1013.7
20260505003054 69 0.0 1.0 0.00 0.00 0.00 37 1013.6
20260505001555 0 80 0.0 0.0 0.00 0.00 0.00 1013.3
20260505000055 0 0.0 0.0 0.00 0.00 0.00 1013.4
20260504234555 72 1.0 2.0 0.00 0.00 0.00 34 1013.3
20260504233056 72 304 1.0 5.0 0.00 0.00 0.00 34 1013.2
20260504231558 73 109 2.0 6.0 0.00 0.00 0.00 34 1013.1
20260504230056 74 333 3.0 8.0 0.00 0.00 0.00 33 1012.9
20260504224553 0 319 1.0 3.0 0.00 0.00 0.00 34 1012.9
20260504223101 74 338 3.0 8.0 0.00 0.00 0.00 32 1012.8
20260504221603 75 213 2.0 6.0 0.00 0.00 0.00 32 1012.7
20260504220055 75 18 2.0 9.0 0.00 0.00 0.00 33 1012.9
20260504214600 0 0.0 0.0 0.00 0.00 0.00 1013.0
20260504213103 0 0.0 0.0 0.00 0.00 0.00 1012.9
20260504211553 0 0.0 0.0 0.00 0.00 0.00 1012.9
20260504210052 75 203 1.0 1.0 0.00 0.00 0.00 1012.8
20260504204600 0 0.0 0.0 0.00 0.00 0.00 1013.0
20260504203057 0 0.0 0.0 0.00 0.00 0.00 1013.1
20260504201557 75 2.0 3.0 0.00 0.00 0.00 1013.4
20260504200053 75 339 2.0 4.0 0.00 0.00 0.00 1013.6
20260504194556 0 0.0 0.0 0.00 0.00 0.00 1013.7
20260504193057 0 1.0 2.0 0.00 0.00 0.00 1014.0
20260504191601 0 2.0 4.0 0.00 0.00 0.00 34 1014.1
20260504190052 0 0.0 0.0 0.00 0.00 0.00 1014.3
20260504184555 75 30 2.0 7.0 0.00 0.00 0.00 33 1014.4
20260504183053 0 0.0 0.0 0.00 0.00 0.00 1014.6
20260504181552 75 42 3.0 6.0 0.00 0.00 0.00 1014.9
20260504180052 0 0.0 0.0 0.00 0.00 0.00 1014.9
20260504174557 0 0.0 0.0 0.00 0.00 0.00 1015.1
20260504173056 0 0.0 0.0 0.00 0.00 0.00 1015.3
20260504171559 0 0.0 0.0 0.00 0.00 0.00 1015.1
20260504160117 71 75 1.0 6.0 0.00 0.00 0.00 37 1016.3
20260504150111 0 50 2.0 0.0 0.00 0.00 0.00 1017.2